Location: Courçay
(47.2523°N, 0.8761°E)
Time: 03:11:02
(UTC+00:00)

COSMOS 2406 - Pass Details

Date: 18 November 2025
Orbit: 845 x 858 km, 71.0° (Epoch: 04 December)

Event Time Altitude Azimuth Distance (km) Brightness Sun altitude
Rises 18:06:27 0° 334° (NNW) 3,417 6.6 -18.2°
Reaches altitude 10° 18:08:56 10° 337° (NNW) 2,479 5.8 -18.6°
Maximum altitude 18:14:36 67° 60° (ENE) 922 3.1 -19.6°
Enters shadow 18:19:02 17° 140° (SE) 2,023 4.9 -20.3°
